Location: Ashtead
(51.3000°N, 0.3000°W)
Time: 12:36:58
(UTC+00:00)

NOSS 3-1 (A) - Pass Details

Date: 26 September 2023
Orbit: 677 x 1534 km, 63.4° (Epoch: 03 November)

Event Time Altitude Azimuth Distance (km) Brightness Sun altitude
Rises 04:04:17 0° 314° (NW) 3,758 6.3 -17.5°
Reaches altitude 10° 04:06:41 10° 315° (NW) 2,917 5.8 -17.1°
Maximum altitude 04:13:48 86° 44° (NE) 1,258 4.1 -16.1°
Drops below altitude 10° 04:22:28 10° 136° (SE) 3,517 6.8 -14.8°
Sets 04:25:37 0° 136° (SE) 4,570 7.4 -14.3°
